Tracking 29594 objects as of 20-Sep-2024
HD Live streaming from Space Station
objects crossing your sky now

FENGYUN 1C DEB

Track FENGYUN 1C DEB now!
10-day predictions


NORAD ID: 37418
Int'l Code: 1999-025EGL
Perigee: 844.1 km
Apogee: 2,589.8 km
Inclination: 98.6 °
Period: 120.6 minutes
Semi major axis: 8087 km
RCS: 0.0014 m2 (small)
Launch date: May 10, 1999
Source: People's Republic of China (PRC)
Launch site: Taiyaun Space Center, China (TSC)

Note: This is SATELLITE DEBRIS
Your satellite tracking list
Your tracking list is empty




NASA's NSSDC Master Catalog

Two Line Element Set (TLE):
1 37418U 99025EGL 24257.87118244  .00003946  00000-0  97533-2 0  9994
2 37418  98.6113 296.3555 1079219 137.9404 230.9808 11.93559380440546
Source of the keplerian elements: AFSPC